Date,TemperatureHighF,TemperatureAvgF,TemperatureLowF,DewpointHighF,DewpointAvgF,DewpointLowF,HumidityHigh,HumidityAvg,HumidityLow,PressureMaxIn,PressureMinIn,WindSpeedMaxMPH,WindSpeedAvgMPH,GustSpeedMaxMPH,PrecipitationSumIn
2013-2-1,18.5,5.7,-3.2,13.7,-0.6,-8.7,82,75,69,30.74,30.44,0,0,0,0.00
2013-2-2,25.0,19.8,12.6,21.2,13.9,7.0,87,78,65,30.45,30.31,0,0,0,0.00
2013-2-3,26.8,20.7,15.8,17.9,14.9,11.5,90,78,65,30.42,30.27,0,0,0,0.00
2013-2-4,27.0,23.2,14.4,21.0,17.2,9.6,82,78,72,30.31,30.10,0,0,0,0.00
2013-2-5,36.5,27.5,13.1,29.4,22.3,8.6,85,81,73,30.44,30.13,0,0,0,0.01
2013-2-6,41.4,29.1,20.2,33.4,24.2,16.4,87,82,73,30.52,30.34,0,0,0,0.02
2013-2-7,36.7,34.6,31.1,34.7,32.1,28.1,93,91,83,30.39,30.19,0,0,0,0.48
2013-2-8,31.5,28.5,25.6,28.1,23.3,20.9,88,81,76,30.70,30.39,0,0,0,0.00
2013-2-9,35.8,29.4,25.0,30.2,25.6,20.9,91,85,79,30.71,30.33,0,0,0,0.00
2013-2-10,47.2,40.8,30.6,45.5,38.4,28.4,95,91,70,30.33,29.68,0,0,0,0.21
2013-2-11,32.8,31.0,27.5,26.6,23.5,20.6,79,74,69,30.41,30.01,0,0,0,0.00
2013-2-12,36.0,29.4,25.2,27.6,22.7,19.2,85,76,65,30.46,30.20,0,0,0,0.00
2013-2-13,43.2,35.0,25.9,34.2,29.1,22.6,88,79,67,30.20,29.99,0,0,0,0.00
2013-2-14,43.0,37.0,29.2,32.3,29.4,25.5,87,74,55,30.36,29.95,0,0,0,0.00
2013-2-15,30.6,24.8,16.9,25.7,14.8,8.8,86,66,46,30.57,30.35,0,0,0,0.00
2013-2-16,27.0,18.7,10.8,13.9,9.7,4.6,79,68,55,30.58,30.47,0,0,0,0.00
2013-2-17,35.3,23.8,10.6,23.0,15.1,4.9,79,69,56,30.51,30.16,0,0,0,0.00
2013-2-18,56.9,40.1,30.6,42.2,32.2,22.3,92,74,56,30.17,29.80,0,0,0,0.03
2013-2-20,24.1,16.8,4.0,15.4,9.3,-1.7,79,72,66,30.75,30.67,0,0,0,0.00
2013-2-21,27.5,20.8,11.7,24.1,16.3,6.9,92,83,77,30.71,30.21,0,0,0,0.00
2013-2-22,37.4,27.5,22.0,33.3,24.1,18.1,92,87,79,30.26,30.09,0,0,0,0.01
2013-2-23,32.2,24.9,18.0,23.4,19.1,14.1,86,79,67,30.30,30.24,0,0,0,0.01
2013-2-24,33.1,23.8,11.3,24.8,18.7,7.9,88,81,70,30.44,30.30,0,0,0,0.00
2013-2-25,37.8,29.9,19.4,31.4,25.2,16.1,88,83,75,30.46,30.22,0,0,0,0.05
2013-2-26,35.3,32.5,30.6,29.5,28.6,27.8,91,86,75,30.22,29.86,0,0,0,0.01
2013-2-27,36.4,31.9,29.2,32.1,29.0,26.6,91,89,83,30.13,29.93,0,0,0,0.13
2013-2-28,39.8,34.0,29.9,32.9,29.3,26.4,91,83,68,30.42,30.13,0,0,0,0.25